Location: Bluff Heights
(33.7692°N, 118.1592°W)
Time: 23:08:24
(UTC+00:00)

Tiros 1 - Pass Details

Date: 30 July 2021
Orbit: 630 x 663 km, 48.4° (Epoch: 20 September)

Event Time Altitude Azimuth Distance (km) Brightness Sun altitude
Rises 07:43:32 0° 314° (NW) 2,951 11.1 -37.7°
Reaches altitude 10° 07:46:09 10° 326° (NW) 2,034 10.3 -37.7°
Enters shadow 07:46:53 14° 332° (NNW) 1,802 10.0 -37.7°
Maximum altitude 07:50:12 28° 26° (NNE) 1,188 - -37.8°
Drops below altitude 10° 07:54:13 10° 86° (E) 2,012 - -37.8°
Sets 07:56:48 0° 98° (E) 2,914 - -37.8°
